EW4868 Weather Reports


Display with metric or nautical units.
time (UTC)temp
F
wind
direction
speed
MPH
gust
MPH
rain 1hr
in
rain 24hr
in
rain mn
in
humidity
%
barometer
mb
20210920170445 85 321 0.0 1.0 0.00 0.01 0.00 78 1016.1
20210920165931 84 321 0.0 1.0 0.00 0.01 0.00 80 1016.1
20210920165417 84 320 0.0 3.0 0.00 0.01 0.00 80 1016.1
20210920164420 84 324 0.0 2.0 0.00 0.01 0.00 81 1016.2
20210920163926 84 320 0.0 2.0 0.00 0.01 0.00 82 1016.2
20210920163433 84 327 0.0 0.0 0.00 0.01 0.00 81 1016.2
20210920162431 84 316 0.0 1.0 0.00 0.01 0.00 82 1016.3
20210920161924 84 344 0.0 3.0 0.00 0.01 0.00 83 1016.2
20210920161420 83 299 0.0 4.0 0.00 0.01 0.00 83 1016.2
20210920160918 84 335 1.0 3.0 0.00 0.01 0.00 83 1016.3
20210920160425 83 349 1.0 3.0 0.00 0.01 0.00 84 1016.3
20210920155914 82 312 1.0 3.0 0.00 0.01 0.00 84 1016.3
20210920155435 82 319 0.0 3.0 0.00 0.01 0.00 88 1016.3
20210920154925 81 321 0.0 1.0 0.00 0.01 0.00 90 1016.4
20210920154426 80 336 0.0 2.0 0.00 0.01 0.00 90 1016.4
20210920153930 80 326 0.0 2.0 0.00 0.01 0.00 91 1016.4
20210920153432 79 327 0.0 3.0 0.00 0.01 0.00 92 1016.4
20210920152929 79 334 1.0 3.0 0.00 0.01 0.00 93 1016.4
20210920152422 79 344 1.0 2.0 0.00 0.01 0.00 93 1016.5
20210920151939 78 333 0.0 2.0 0.00 0.01 0.00 93 1016.5
20210920151419 78 348 0.0 3.0 0.00 0.01 0.00 94 1016.4
20210920150929 78 341 0.0 3.0 0.00 0.01 0.00 94 1016.3
20210920150423 78 317 0.0 2.0 0.00 0.01 0.00 95 1016.3
20210920145924 78 355 0.0 2.0 0.00 0.01 0.00 95 1016.4
20210920145424 78 334 0.0 2.0 0.00 0.01 0.00 95 1016.4
20210920144929 78 343 0.0 2.0 0.00 0.01 0.00 95 1016.4
20210920144415 78 336 0.0 2.0 0.00 0.01 0.00 96 1016.4
20210920143939 78 348 0.0 4.0 0.00 0.01 0.00 96 1016.3
20210920143433 78 324 1.0 4.0 0.00 0.01 0.00 97 1016.2
20210920142924 77 13 0.0 3.0 0.00 0.01 0.00 97 1016.2
20210920142412 77 325 0.0 3.0 0.00 0.01 0.00 97 1016.1
20210920141931 77 328 0.0 0.0 0.00 0.01 0.00 97 1016.0
20210920141425 77 324 0.0 0.0 0.00 0.01 0.00 97 1016.0
20210920140923 76 350 0.0 3.0 0.00 0.01 0.00 97 1016.0
20210920135930 76 336 0.0 3.0 0.00 0.01 0.00 97 1015.8
20210920135413 76 340 0.0 3.0 0.00 0.01 0.00 97 1015.8
20210920134924 76 321 1.0 3.0 0.00 0.01 0.00 97 1015.8
20210920134418 76 351 0.0 3.0 0.00 0.01 0.00 97 1015.6
20210920133917 76 309 1.0 2.0 0.00 0.01 0.00 97 1015.6
20210920133419 76 328 0.0 3.0 0.00 0.01 0.00 97 1015.5
20210920132930 75 336 0.0 3.0 0.00 0.01 0.00 97 1015.6
20210920132417 75 324 0.0 2.0 0.00 0.01 0.00 97 1015.6
20210920131417 75 337 0.0 1.0 0.00 0.01 0.00 97 1015.5
20210920130922 75 323 0.0 2.0 0.00 0.01 0.00 97 1015.4
20210920125927 75 309 0.0 1.0 0.00 0.01 0.00 98 1015.4
20210920125413 75 317 0.0 3.0 0.00 0.01 0.00 98 1015.4
20210920124924 74 321 0.0 4.0 0.00 0.01 0.00 98 1015.3
20210920124418 74 319 1.0 4.0 0.00 0.01 0.00 98 1015.3
20210920123934 74 307 2.0 4.0 0.00 0.01 0.00 98 1015.2
20210920123435 75 317 2.0 3.0 0.00 0.01 0.00 98 1015.2
20210920122913 74 314 1.0 3.0 0.00 0.01 0.00 98 1015.2
20210920122415 74 317 1.0 3.0 0.00 0.01 0.00 98 1015.1
20210920121937 75 319 1.0 3.0 0.00 0.01 0.00 98 1015.1
20210920121431 74 317 1.0 3.0 0.00 0.01 0.00 98 1015.1
20210920120432 74 323 0.0 3.0 0.00 0.01 0.00 98 1015.2
20210920115931 74 323 0.0 3.0 0.00 0.01 0.00 98 1015.2
20210920115432 74 303 1.0 3.0 0.00 0.01 0.00 98 1015.2
20210920114922 74 314 1.0 3.0 0.00 0.01 0.00 98 1015.1
20210920114422 74 314 1.0 3.0 0.00 0.01 0.00 98 1015.0
20210920113924 74 317 1.0 3.0 0.00 0.01 0.00 97 1014.9
20210920113439 74 324 0.0 3.0 0.00 0.01 0.00 97 1014.9
20210920112936 74 317 1.0 3.0 0.00 0.01 0.00 98 1014.9
20210920112431 74 321 0.0 2.0 0.00 0.01 0.00 98 1014.9
20210920111934 74 321 0.0 2.0 0.00 0.01 0.00 97 1014.9
20210920111413 74 316 0.0 1.0 0.00 0.01 0.00 97 1014.9
20210920110931 74 316 0.0 1.0 0.00 0.01 0.00 97 1014.8
20210920110507 74 318 1.0 2.0 0.00 0.01 0.00 97 1014.7
20210920105920 74 318 1.0 2.0 0.00 0.02 0.00 97 1014.7
20210920105426 74 314 1.0 2.0 0.00 0.02 0.00 97 1014.7
20210920104923 74 332 0.0 0.0 0.00 0.02 0.00 97 1014.7
20210920104416 74 332 0.0 2.0 0.00 0.02 0.00 97 1014.7
20210920103913 74 332 0.0 2.0 0.00 0.02 0.00 97 1014.6
20210920103420 74 321 0.0 2.0 0.00 0.02 0.00 97 1014.7
20210920102931 75 321 0.0 3.0 0.00 0.02 0.00 97 1014.7
20210920102423 75 319 0.0 4.0 0.00 0.02 0.00 97 1014.6
20210920102013 75 315 0.0 3.0 0.00 0.02 0.00 97 1014.5
20210920101429 75 315 1.0 2.0 0.00 0.02 0.00 97 1014.4
20210920100920 75 334 0.0 0.0 0.00 0.02 0.00 97 1014.4
20210920100455 75 334 0.0 0.0 0.00 0.02 0.00 97 1014.3
20210920095934 75 334 0.0 0.0 0.00 0.02 0.00 97 1014.3
20210920095416 74 334 0.0 0.0 0.00 0.02 0.00 97 1014.2
20210920094915 75 334 0.0 0.0 0.00 0.02 0.00 97 1014.2
20210920094435 74 334 0.0 0.0 0.00 0.02 0.00 97 1014.3
20210920093927 75 334 0.0 0.0 0.00 0.02 0.00 97 1014.2
20210920092920 75 331 0.0 2.0 0.00 0.02 0.00 97 1014.2
20210920091917 75 325 0.0 3.0 0.00 0.02 0.00 97 1014.1
20210920091417 75 320 1.0 3.0 0.00 0.02 0.00 97 1014.0
20210920090928 75 325 0.0 3.0 0.00 0.02 0.00 97 1013.9
20210920090423 75 325 0.0 3.0 0.00 0.02 0.00 97 1013.9
20210920085924 75 311 0.0 0.0 0.00 0.02 0.00 97 1013.9
20210920085425 75 328 0.0 1.0 0.00 0.02 0.00 97 1013.9
20210920084930 75 328 0.0 3.0 0.00 0.02 0.00 97 1013.9
20210920084416 75 306 0.0 3.0 0.00 0.02 0.00 97 1013.9
20210920083914 75 325 0.0 0.0 0.00 0.02 0.00 97 1013.9
20210920083437 75 325 0.0 0.0 0.00 0.02 0.00 97 1013.9
20210920082916 75 325 0.0 0.0 0.00 0.02 0.00 97 1013.9
20210920082420 75 326 0.0 0.0 0.00 0.02 0.00 97 1013.9
20210920081928 75 326 0.0 0.0 0.00 0.02 0.00 97 1013.9
20210920081421 75 321 0.0 1.0 0.00 0.02 0.00 97 1013.8
20210920080920 75 322 0.0 2.0 0.00 0.02 0.00 97 1013.8
20210920075921 75 310 1.0 3.0 0.00 0.02 0.00 97 1013.9
20210920075420 75 336 0.0 0.0 0.00 0.02 0.00 97 1013.9
20210920074912 75 336 0.0 0.0 0.00 0.02 0.00 97 1014.0
20210920074414 75 336 0.0 0.0 0.00 0.02 0.00 97 1014.0
20210920073913 75 336 0.0 0.0 0.00 0.02 0.00 97 1014.0
20210920073414 75 345 0.0 0.0 0.00 0.02 0.00 97 1014.1
20210920072931 75 345 0.0 0.0 0.00 0.02 0.00 97 1014.1
20210920072432 75 345 0.0 0.0 0.00 0.02 0.00 97 1014.1
20210920071923 75 345 0.0 0.0 0.00 0.02 0.00 97 1014.1
20210920071422 75 345 0.0 0.0 0.00 0.02 0.00 97 1014.1
20210920070921 75 345 0.0 0.0 0.00 0.02 0.00 97 1014.1
20210920070449 75 332 0.0 1.0 0.00 0.02 0.00 97 1014.1
20210920065923 75 332 0.0 1.0 0.00 0.02 0.00 97 1014.1
20210920065422 75 332 0.0 0.0 0.00 0.02 0.00 97 1014.2
20210920064919 75 332 0.0 0.0 0.00 0.02 0.00 97 1014.2
20210920064420 75 332 0.0 1.0 0.00 0.02 0.00 97 1014.3
20210920063915 75 333 0.0 1.0 0.00 0.02 0.00 97 1014.3
20210920063417 75 317 0.0 1.0 0.00 0.02 0.00 97 1014.3
20210920062934 75 317 0.0 1.0 0.00 0.02 0.00 97 1014.3
20210920062436 75 317 0.0 1.0 0.00 0.02 0.00 97 1014.3
20210920061919 75 317 0.0 1.0 0.00 0.02 0.00 97 1014.3
20210920061439 75 334 0.0 0.0 0.00 0.02 0.00 97 1014.3
20210920060916 75 324 0.0 0.0 0.00 0.02 0.00 97 1014.4
20210920060415 75 325 0.0 3.0 0.00 0.02 0.00 97 1014.4
20210920055917 75 324 1.0 3.0 0.00 0.02 0.00 97 1014.4
20210920055417 75 301 0.0 3.0 0.00 0.02 0.00 97 1014.5
20210920054914 75 345 0.0 4.0 0.00 0.02 0.00 97 1014.5
20210920054413 75 311 1.0 4.0 0.00 0.02 0.00 97 1014.4
20210920053936 75 336 0.0 3.0 0.00 0.02 0.00 97 1014.5
20210920053436 75 336 0.0 2.0 0.00 0.02 0.00 97 1014.6
20210920052918 75 4 0.0 0.0 0.00 0.02 0.00 97 1014.7
20210920052418 75 4 0.0 0.0 0.00 0.02 0.00 97 1014.7
20210920052000 75 351 0.0 1.0 0.00 0.02 0.00 97 1014.7
20210920051436 75 352 0.0 1.0 0.00 0.02 0.00 97 1014.7
20210920050920 75 360 0.0 0.0 0.00 0.02 0.00 97 1014.7
20210920050420 75 360 0.0 3.0 0.00 0.02 0.00 97 1014.7
20210920045921 75 340 0.0 3.0 0.00 0.02 0.02 97 1014.7
20210920045421 75 333 0.0 3.0 0.00 0.02 0.02 97 1014.7
20210920044935 75 348 0.0 4.0 0.00 0.02 0.02 96 1014.8
20210920044436 75 338 0.0 5.0 0.00 0.02 0.02 96 1014.8
20210920043920 75 329 2.0 5.0 0.00 0.02 0.02 96 1014.9
20210920043421 75 336 0.0 3.0 0.00 0.02 0.02 96 1014.9
20210920042939 75 336 0.0 4.0 0.00 0.02 0.02 96 1015.0
20210920041938 75 352 1.0 6.0 0.00 0.02 0.02 96 1015.0
20210920041413 75 7 2.0 6.0 0.00 0.02 0.02 96 1015.0
20210920040923 76 330 0.0 3.0 0.00 0.02 0.02 96 1015.0
20210920040423 76 333 0.0 3.0 0.00 0.02 0.02 96 1015.1
20210920035932 76 345 0.0 4.0 0.00 0.02 0.02 96 1015.2
20210920035433 76 339 1.0 4.0 0.00 0.02 0.02 96 1015.2
20210920034924 76 340 0.0 2.0 0.00 0.02 0.02 96 1015.2
20210920034424 76 343 0.0 4.0 0.00 0.02 0.02 96 1015.2
20210920033917 76 331 1.0 4.0 0.00 0.02 0.02 96 1015.2
20210920033417 76 328 0.0 2.0 0.00 0.02 0.02 96 1015.2
20210920032935 76 319 0.0 3.0 0.00 0.02 0.02 96 1015.2
20210920032413 76 321 0.0 3.0 0.00 0.02 0.02 96 1015.2
20210920031924 76 330 0.0 3.0 0.00 0.02 0.02 96 1015.2
20210920031426 76 331 1.0 3.0 0.00 0.02 0.02 96 1015.2
20210920030916 75 319 1.0 3.0 0.00 0.02 0.02 96 1015.2
20210920030417 75 321 2.0 5.0 0.00 0.02 0.02 96 1015.2
20210920025919 75 314 3.0 5.0 0.00 0.02 0.02 96 1015.1
20210920025421 76 326 2.0 5.0 0.00 0.02 0.02 96 1015.2
20210920024913 76 314 2.0 5.0 0.00 0.02 0.02 96 1015.2
20210920024414 76 317 0.0 3.0 0.00 0.02 0.02 96 1015.2
20210920023913 75 326 1.0 3.0 0.00 0.02 0.02 96 1015.2
20210920023414 75 314 1.0 3.0 0.00 0.02 0.02 96 1015.2
20210920022913 76 323 0.0 4.0 0.00 0.02 0.02 95 1015.2
20210920022414 76 309 2.0 4.0 0.00 0.02 0.02 96 1015.2
20210920021933 76 321 1.0 3.0 0.00 0.02 0.02 96 1015.2
20210920021426 76 314 0.0 3.0 0.00 0.02 0.02 96 1015.2
20210920020922 76 317 2.0 3.0 0.00 0.02 0.02 96 1015.1
20210920020422 76 320 1.0 4.0 0.00 0.02 0.02 96 1015.0
20210920015932 76 312 0.0 4.0 0.00 0.02 0.02 96 1015.0
20210920015425 76 307 2.0 4.0 0.00 0.02 0.02 96 1014.9
20210920014918 75 315 0.0 1.0 0.01 0.02 0.02 96 1014.9
20210920014419 75 317 0.0 1.0 0.01 0.02 0.02 96 1014.9
20210920013935 76 317 0.0 1.0 0.01 0.02 0.02 95 1014.9
20210920013437 76 313 0.0 1.0 0.01 0.02 0.02 95 1014.8
20210920012921 76 319 0.0 2.0 0.01 0.02 0.02 95 1014.8
20210920012420 76 314 0.0 2.0 0.01 0.02 0.02 95 1014.8
20210920011937 76 306 0.0 1.0 0.01 0.02 0.02 95 1014.8
20210920011430 76 306 0.0 3.0 0.01 0.02 0.02 95 1014.7
20210920010929 76 302 1.0 3.0 0.01 0.02 0.02 95 1014.6
20210920010430 76 314 0.0 4.0 0.01 0.02 0.02 94 1014.6
20210920005913 76 297 0.0 4.0 0.01 0.02 0.02 94 1014.6
20210920005415 76 291 2.0 3.0 0.01 0.02 0.02 94 1014.6
20210920004927 76 311 0.0 3.0 0.00 0.01 0.01 94 1014.6
20210920004430 76 298 1.0 4.0 0.00 0.01 0.01 93 1014.6
20210920003929 77 305 1.0 4.0 0.00 0.01 0.01 93 1014.5
20210920003430 77 286 2.0 3.0 0.00 0.01 0.01 93 1014.5
20210920002921 78 312 0.0 4.0 0.00 0.01 0.01 93 1014.5
20210920002422 78 293 2.0 4.0 0.00 0.01 0.01 93 1014.4
20210920001933 78 299 1.0 3.0 0.00 0.01 0.01 93 1014.4
20210920001434 78 310 0.0 3.0 0.00 0.01 0.01 93 1014.5
20210920000917 78 310 0.0 3.0 0.00 0.01 0.01 92 1014.4
20210920000418 79 265 0.0 3.0 0.00 0.01 0.01 91 1014.3
20210919235926 79 289 0.0 4.0 0.00 0.02 0.01 91 1014.3
20210919235429 79 292 1.0 4.0 0.00 0.02 0.01 91 1014.3
20210919234920 80 317 0.0 0.0 0.00 0.02 0.01 89 1014.3
20210919234422 80 310 0.0 1.0 0.00 0.02 0.01 88 1014.3
20210919233939 80 311 0.0 1.0 0.00 0.02 0.01 87 1014.3
20210919233439 80 324 0.0 0.0 0.00 0.02 0.01 88 1014.3
20210919232924 80 319 0.0 1.0 0.00 0.02 0.01 88 1014.2
20210919232425 80 317 0.0 0.0 0.00 0.02 0.01 87 1014.2
20210919231916 80 341 0.0 0.0 0.00 0.02 0.01 87 1014.2
20210919231417 81 6 0.0 0.0 0.00 0.02 0.01 86 1014.1
20210919230915 81 6 0.0 0.0 0.00 0.02 0.01 86 1014.0
20210919230415 81 6 0.0 0.0 0.00 0.02 0.01 85 1013.9
20210919225917 81 6 0.0 0.0 0.00 0.06 0.01 85 1013.9
20210919225418 81 3 0.0 0.0 0.00 0.06 0.01 85 1013.9
20210919224933 81 3 0.0 0.0 0.00 0.06 0.01 84 1014.0
20210919224433 81 14 0.0 0.0 0.00 0.06 0.01 84 1014.0
20210919223918 81 14 0.0 0.0 0.00 0.06 0.01 84 1014.1
20210919223431 81 12 0.0 3.0 0.00 0.06 0.01 83 1014.1
20210919222921 82 30 0.0 3.0 0.00 0.06 0.01 81 1014.0
20210919222421 82 338 0.0 2.0 0.00 0.06 0.01 82 1013.9
20210919221939 82 357 0.0 3.0 0.00 0.06 0.01 82 1013.8
20210919221439 82 343 0.0 3.0 0.00 0.06 0.01 82 1013.7
20210919220924 82 350 0.0 3.0 0.00 0.06 0.01 82 1013.7
20210919220422 82 4 1.0 5.0 0.00 0.06 0.01 82 1013.5
20210919215931 82 10 1.0 5.0 0.00 0.18 0.01 81 1013.5
20210919215433 82 354 1.0 4.0 0.00 0.18 0.01 79 1013.4
20210919214916 83 335 1.0 5.0 0.00 0.18 0.01 79 1013.5
20210919214436 83 331 3.0 6.0 0.00 0.18 0.01 77 1013.4
20210919213918 83 338 3.0 6.0 0.00 0.18 0.01 76 1013.5
20210919213419 84 352 1.0 6.0 0.00 0.18 0.01 77 1013.5
20210919212916 83 313 1.0 7.0 0.00 0.18 0.01 79 1013.5
20210919212435 83 330 2.0 7.0 0.00 0.18 0.01 79 1013.4
20210919211421 82 329 3.0 6.0 0.00 0.18 0.01 82 1013.4
20210919210919 82 325 2.0 6.0 0.00 0.18 0.01 83 1013.4
20210919210421 83 328 2.0 6.0 0.00 0.18 0.01 82 1013.4
20210919205917 83 350 1.0 6.0 0.00 0.27 0.01 80 1013.5
20210919205416 84 4 1.0 8.0 0.00 0.27 0.01 80 1013.5
20210919204934 85 319 5.0 8.0 0.00 0.27 0.01 77 1013.4
20210919204429 86 346 1.0 5.0 0.00 0.27 0.01 74 1013.4
20210919203913 86 323 2.0 5.0 0.00 0.27 0.01 73 1013.4
20210919203413 87 314 1.0 4.0 0.00 0.27 0.01 72 1013.4
20210919202938 87 314 2.0 5.0 0.00 0.27 0.01 73 1013.5
20210919202439 87 343 0.0 3.0 0.00 0.27 0.01 73 1013.6
20210919201924 86 340 2.0 3.0 0.00 0.27 0.01 75 1013.7
20210919201422 86 343 1.0 3.0 0.00 0.27 0.01 75 1013.8
20210919200919 86 2 0.0 3.0 0.00 0.27 0.01 74 1013.8
20210919200419 86 319 0.0 3.0 0.00 0.27 0.01 75 1013.8
20210919195921 86 321 0.0 4.0 0.00 0.61 0.01 74 1013.8
20210919195420 86 343 0.0 6.0 0.00 0.61 0.01 72 1013.9
20210919194918 87 329 1.0 6.0 0.00 0.61 0.01 72 1013.9
20210919194418 87 7 1.0 3.0 0.00 0.61 0.01 71 1014.0
20210919193914 86 320 0.0 0.0 0.00 0.61 0.01 75 1013.9
20210919193414 85 329 0.0 0.0 0.00 0.61 0.01 76 1014.0
20210919192926 84 329 0.0 3.0 0.00 0.61 0.01 77 1014.0
20210919192427 84 329 1.0 3.0 0.00 0.61 0.01 76 1014.1
20210919191916 85 322 0.0 3.0 0.00 0.61 0.01 75 1014.1
20210919191415 85 314 2.0 3.0 0.00 0.61 0.01 75 1014.3
20210919190923 86 322 0.0 5.0 0.00 0.61 0.01 76 1014.4
20210919190424 86 312 1.0 5.0 0.00 0.61 0.01 75 1014.5
20210919185914 86 301 1.0 5.0 0.00 0.61 0.01 75 1014.5
20210919185415 85 336 2.0 5.0 0.00 0.61 0.01 77 1014.6
20210919184926 85 328 0.0 4.0 0.00 0.61 0.01 77 1014.6
20210919184427 84 325 1.0 3.0 0.00 0.61 0.01 78 1014.7
20210919183918 84 321 1.0 4.0 0.00 0.61 0.01 78 1014.7
20210919183418 84 322 1.0 4.0 0.00 0.61 0.01 79 1014.8
20210919182929 84 311 1.0 4.0 0.00 0.61 0.01 79 1014.8
20210919182423 84 323 0.0 4.0 0.00 0.61 0.01 78 1014.9
20210919181921 85 321 0.0 4.0 0.00 0.61 0.01 78 1015.0
20210919181423 85 312 0.0 4.0 0.00 0.61 0.01 79 1015.1
20210919180915 85 293 1.0 4.0 0.00 0.61 0.01 80 1015.1
20210919180415 84 315 0.0 3.0 0.00 0.61 0.01 80 1015.2
20210919175922 83 323 0.0 1.0 0.00 0.61 0.01 80 1015.2
20210919175425 83 344 0.0 1.0 0.00 0.61 0.01 81 1015.3
20210919174917 83 322 0.0 1.0 0.00 0.61 0.01 81 1015.5
20210919174418 83 323 0.0 0.0 0.00 0.61 0.01 81 1015.5
20210919173912 84 319 0.0 0.0 0.00 0.61 0.01 79 1015.7
20210919173413 84 331 0.0 0.0 0.00 0.61 0.01 80 1015.8
20210919172923 83 331 0.0 0.0 0.00 0.61 0.01 80 1016.0
20210919172425 83 324 0.0 0.0 0.00 0.61 0.01 79 1016.0
20210919171923 83 324 0.0 1.0 0.00 0.61 0.01 79 1016.2
20210919171424 83 309 0.0 3.0 0.00 0.61 0.01 81 1016.3
20210919170917 84 299 0.0 3.0 0.00 0.61 0.01 80 1016.5